Regional Weather Roundup
Issued by NWS

Home | Current Version | Previous Version | Graphics & Text | Print | Product List | Glossary On
Versions: 1 2 3 4 5 6 7 8 9 10 11 12 13 14 15 16 17 18 19 20 21 22 23 24 25 26 27 28 29 30 31 32 33 34 35 36 37 38 39 40 41 42 43 44 45 46 47 48 49 50
000
ASUS43 KMPX 281510
RWRMN
WEATHER ROUNDUP FOR MINNESOTA
NATIONAL WEATHER SERVICE TWIN CITIES/CHANHASSEN MN
1000 AM CDT THU AUG 28 2014


NOTE: "FAIR" INDICATES FEW OR NO CLOUDS BELOW 12,000 FEET WITH NO
SIGNIFICANT WEATHER AND/OR OBSTRUCTIONS TO VISIBILITY. N/A MEANS
CURRENT SKY AND/OR WEATHER CONDITIONS ARE NOT AVAILABLE.

MNZ060>063-068>070-281600-
   Twin Cities Metro

CITY           SKY/WX    TMP DP  RH WIND       PRES   REMARKS
TWIN CITIES    PTSUNNY   69  58  67 SE12      30.08S
ST PAUL        PTSUNNY   68  58  70 SE10      30.08F
CRYSTAL        MOSUNNY   71  57  61 SE10      30.06S
BLAINE         PTSUNNY   72  59  64 SE8       30.08
LAKEVILLE      CLOUDY    64  61  88 SE9       30.08S
EDEN PRAIRIE   PTSUNNY   69  59  70 SE12      30.06F
SOUTH ST PAUL  PTSUNNY   68  57  68 SE7       30.08S
LAKE ELMO      FAIR      68  57  68 SE7       30.10S
$$
MNZ001>005-007-008-013>017-022>024-027-028-281600-
   Northwest Minnesota

CITY           SKY/WX    TMP DP  RH WIND       PRES   REMARKS
BEMIDJI        PTSUNNY   63  58  84 SE7       30.05S
HALLOCK        MOSUNNY   66  63  88 S15       29.95S
ROSEAU         MOSUNNY   68  61  77 S10       29.99S
WARROAD        PTSUNNY   66  61  82 S8        30.00F
THIEF RVR FALL CLOUDY    63  61  94 S10       30.00S
CROOKSTON      MOSUNNY   66  61  82 S12       29.99S
FOSSTON        CLOUDY    61  55  82 SE6       30.03S
DETROIT LAKES  PTSUNNY   64  59  82 S8        30.04R
MOORHEAD       CLOUDY    68  66  94 S8        30.00R
PARK RAPIDS    CLOUDY    63  58  83 SE10      30.05F
MAHNOMEN       CLOUDY    64  59  86 SE8       30.02S
$$
MNZ006-009>011-018-025>026-281600-
   North Central Minnesota

CITY           SKY/WX    TMP DP  RH WIND       PRES   REMARKS
BAUDETTE       MOSUNNY   66  59  78 S12       30.02F
FLAG ISLAND    SUNNY     66  61  82 S9        29.99F
INTL FALLS     MOSUNNY   65  57  75 S6        30.05F
WASKISH        PTSUNNY   64  63  94 SE5       30.04S
BIG FORK       MOSUNNY   66  57  72 S5        30.08S
LONGVILLE      CLOUDY    63  61  94 CALM      30.07S
GRAND RAPIDS   MOSUNNY   63  55  77 S14G20    30.10R
CRANE LAKE     SUNNY     63  57  82 S6        30.10F
ORR            SUNNY     64  54  68 S5        30.06F
COOK           SUNNY     64  55  72 SE7       30.09F
WALKER         CLOUDY    63  58  83 SE3       30.06S
$$
MNZ012-019>021-037-281600-
   Northeast Minnesota

CITY           SKY/WX    TMP DP  RH WIND       PRES   REMARKS
DULUTH         SUNNY     65  53  65 S7        30.12S
ELY            SUNNY     64  55  72 S3        30.11S
HIBBING        SUNNY     64  55  72 VRB3      30.10F
EVELETH        SUNNY     57  55  94 S3        30.11F
DULUTH HARBOR  SUNNY     63  57  82 NE3       30.12F
TWO HARBORS    SUNNY     63  55  77 CALM      30.11S
SILVER BAY     SUNNY     63  57  82 CALM      30.11S
GRAND MARAIS     N/A     62  54  74 E7        30.13R
G MARAIS ARPRT SUNNY     61  52  72 CALM      30.15R
$$
MNZ029>031-032-039>041-046>048-054>057-064-281600-
   West Central Minnesota

CITY           SKY/WX    TMP DP  RH WIND       PRES   REMARKS
FERGUS FALLS   CLOUDY    66  57  72 SE10      30.01S
WHEATON        CLOUDY    63  61  94 SE9       30.01S
MORRIS         LGT RAIN  66  63  88 SE12      30.00S
ALEXANDRIA     CLOUDY    65  59  81 SE10      30.05S
ELBOW LAKE     CLOUDY    66  60  82 SE10      30.01S
WADENA         CLOUDY    63  57  82 SE6       30.04S
GLENWOOD       CLOUDY    64  61  88 SE8       30.04F
APPLETON       LGT RAIN  66  61  82 SE10      29.99F
BENSON         CLOUDY    66  61  82 S10       30.01F
ORTONVILLE     DRIZZLE   64  61  88 SE8       29.99S
MADISON        CLOUDY    66  64  94 E7        29.99F
WILLMAR        FAIR      68  61  77 SE12      30.04S
$$
MNZ033>034-036-042>043-049>051-058-059-281600-
   Central Minnesota

CITY           SKY/WX    TMP DP  RH WIND       PRES   REMARKS
ST CLOUD       MOSUNNY   70  59  68 SE10      30.06S
SAUK CENTRE    PTSUNNY   66  60  81 SE12      30.05S
PAYNESVILLE    CLOUDY    66  60  80 E12       30.05S HAZE
AITKIN         MOSUNNY   70  59  68 S9        30.07S
PINE RIVER     PTSUNNY   64  59  82 SE7       30.10S
BRAINERD       PTSUNNY   66  58  75 SE6       30.07F
STAPLES        PTSUNNY   64  57  77 SE5       30.05F
LONG PRAIRIE   CLOUDY    63  59  88 SE7       30.05F
LITTLE FALLS   PTSUNNY   64  57  77 SE8       30.06S
LITCHFIELD     PTSUNNY   68  63  83 SE12      30.05F
BUFFALO        PTSUNNY   68  59  73 E8        30.07S
MAPLE LAKE     PTSUNNY   70  63  78 SE5       30.07S
$$
MNZ037-044-045-052-053-281600-
   East Central Minnesota

CITY           SKY/WX    TMP DP  RH WIND       PRES   REMARKS
PRINCETON      PTSUNNY   66  57  72 SE8       30.08S
MORA           PTSUNNY   63  54  72 SE3       30.11S
CAMBRIDGE      CLOUDY    66  55  68 SE6       30.07S
RUSH CITY      CLOUDY    62  56  80 CALM      30.10S
MOOSE LAKE     PTSUNNY   63  54  72 CALM      30.09S
HINCKLEY       FAIR      63  55  77 E5        30.11S
CLOQUET        SUNNY     63  52  67 SE5       30.11F
MCGREGOR       SUNNY     64  55  72 SE6       30.10S
$$
MNZ071>073-080-081-089-090-097-098-281600-
   Southwest Minnesota

CITY           SKY/WX    TMP DP  RH WIND       PRES   REMARKS
MONTEVIDEO     CLOUDY    64  63  94 S8        30.01F
GRANITE FALLS  CLOUDY    65  60  85 E9        30.02S
CANBY          DRIZZLE   64  62  91 SE8       30.00S
MARSHALL       CLOUDY    64  61  88 SE10      29.99S
REDWOOD FALLS  CLOUDY    66  60  81 SE12      30.01F
OLIVIA         CLOUDY    68  61  77 SE9       30.02S
PIPESTONE      LGT RAIN  66  64  94 SE8       29.98S
WINDOM         LGT RAIN  64  63  94 E9        30.01F
WORTHINGTON    CLOUDY    64  64 100 E8        30.00F
JACKSON        LGT RAIN  64  61  88 SE12      30.01F
TRACY          DRIZZLE   66  64  94 SE7       30.00F
SLAYTON        LGT RAIN  64  64  99 CALM      30.01S
$$
MNZ065>067-074>077-082>085-091>093-281600-
   South Central Minnesota

CITY           SKY/WX    TMP DP  RH WIND       PRES   REMARKS
MANKATO        CLOUDY    64  57  77 SE13      30.05F
NEW ULM        LGT RAIN  64  63  94 SE10      30.03S
ST JAMES       LGT RAIN  64  63  94 E9        30.03F
FAIRMONT       CLOUDY    63  59  88 SE9       30.02F
GLENCOE        PTSUNNY   67  59  75 E10       30.05F
FARIBAULT      CLOUDY    70  57  64 SE7       30.07F
OWATONNA       LGT RAIN  66  59  77 SE8       30.07S
WASECA         RAIN      61  55  82 SE8       30.08F
ALBERT LEA     LGT RAIN  63  63 100 SE9       30.06F
$$
MNZ078>079-086>088-094>096-281600-
   Southeast Minnesota

CITY           SKY/WX    TMP DP  RH WIND       PRES   REMARKS
ROCHESTER      CLOUDY    64  61  90 SE8       30.11S
RED WING       PTSUNNY   68  57  68 SE10      30.08F
STANTON        CLOUDY    66  60  78 SE6       30.07S
DODGE CENTER   DRIZZLE   64  63  94 SE9       30.09S
WINONA         PTSUNNY   66  61  82 SE6       30.11S
AUSTIN         LGT RAIN  64  63  94 SE7       30.08F
PRESTON        CLOUDY    65  64  96 CALM      30.11S
$$
ABBREVIATIONS USED IN REMARKS
   TC - TEMPERATURES IN CELSIUS
  WCI - WIND CHILL INDEX
   HX - HEAT INDEX
  VSB - VISIBILITY
$$


USA.gov is the U.S. government's official web portal to all federal, state and local government web resources and services.